Retour au catalogue

STARLINK-35536

ActifCommunicationsVLEO
NORAD 66261·PAYLOAD·🇺🇸 United States

Lancé Oct 29, 2025 depuis Cape Canaveral Space Force Station

Loading…

Prochains Passages (prochaines 24 heures)

TLE

FraisSource: CelesTrak SupGP

Époque: Sep 15, 2026, 03:22 UTC

1 66261C 25245AD  26258.14076389  .00028965  00000+0  93135-3 0  2581
2 66261  53.1570 122.2729 0001334 101.9447 321.4336 15.31689967    14

Suivez STARLINK-35536 en temps réel avec AllMySat

Download on the App Store